Trinidad, Colorado, United States (81082)
Lat: 37.17N, Lon: 104.5W
Wx Zone: COZ088
Local Info
Past Weather Observations for Friday, April 24, 2015

NOTE: This archive is for the closest National Weather Service station to Trinidad. Information may differ from the station used for current weather conditions.

Click here for Long-term Archive

Time Weather Temperature Dewpoint Humidity Pressure Winds Precip Visibility
23:54
Clear
43°F / 6°C 23°F / -5°C 46% 29.77 in
(1008 mb)
SSW 16.1 mph
(SSW 26 kph)
- 10SM
22:54
Clear
41°F / 5°C 25°F / -4°C 53% 29.77 in
(1008 mb)
SSW 12.7 mph
(SSW 20 kph)
- 10SM
21:54
Clear
43°F / 6°C 25°F / -4°C 49% 29.77 in
(1008 mb)
W 9.2 mph
(W 15 kph)
- 10SM
20:54
Clear
45°F / 7°C 25°F / -4°C 46% 29.74 in
(1007 mb)
SSW 8.1 mph
(SSW 13 kph)
- 10SM
19:54
Clear
48°F / 9°C 25°F / -4°C 40% 29.74 in
(1007 mb)
SSW 9.2 mph
(SSW 15 kph)
- 10SM
18:54
Clear
52°F / 11°C 25°F / -4°C 35% 29.71 in
(1006 mb)
SSW 11.5 mph
(SSW 19 kph)
- 10SM
17:54
Clear
59°F / 15°C 23°F / -5°C 25% 29.68 in
(1005 mb)
W 20.7 mph
(W 33 kph)
- 10SM
16:54
Partly Cloudy
63°F / 17°C 27°F / -3°C 25% 29.65 in
(1004 mb)
NW 23 mph
(NW 37 kph)
- 10SM
15:54
Partly Cloudy
59°F / 15°C 23°F / -5°C 25% 29.68 in
(1005 mb)
WNW 25.3 mph
(WNW 41 kph)
- 10SM
14:54
Partly Cloudy
57°F / 14°C 30°F / -1°C 36% 29.65 in
(1004 mb)
WNW 29.9 mph
(WNW 48 kph)
- 10SM
13:54
Clear
64°F / 18°C 23°F / -5°C 21% 29.65 in
(1004 mb)
NW 13.8 mph
(NW 22 kph)
- 10SM
12:54
Clear
64°F / 18°C 19°F / -7°C 18% 29.65 in
(1004 mb)
WNW 9.2 mph
(WNW 15 kph)
- 10SM
11:54
Mostly Cloudy
63°F / 17°C 21°F / -6°C 20% 29.65 in
(1004 mb)
W 5.8 mph
(W 9 kph)
- 10SM
10:54
Clear
66°F / 19°C 23°F / -5°C 19% 29.68 in
(1005 mb)
NW 10.4 mph
(NW 17 kph)
- 10SM
09:54
Clear
64°F / 18°C 25°F / -4°C 22% 29.71 in
(1006 mb)
Variable 6.9 mph
(Variable 11 kph)
- 10SM
08:54
Clear
59°F / 15°C 27°F / -3°C 29% 29.74 in
(1007 mb)
WNW 6.9 mph
(WNW 11 kph)
- 10SM
07:54
Clear
55°F / 13°C 28°F / -2°C 36% 29.77 in
(1008 mb)
SSW 13.8 mph
(SSW 22 kph)
- 10SM
06:54
Clear
48°F / 9°C 28°F / -2°C 46% 29.77 in
(1008 mb)
SSW 6.9 mph
(SSW 11 kph)
- 10SM
05:54
Clear
43°F / 6°C 27°F / -3°C 53% 29.77 in
(1008 mb)
SSW 6.9 mph
(SSW 11 kph)
- 10SM
04:54
Clear
43°F / 6°C 27°F / -3°C 53% 29.77 in
(1008 mb)
SW 13.8 mph
(SW 22 kph)
- 10SM
03:54
Clear
39°F / 4°C 28°F / -2°C 65% 29.8 in
(1009 mb)
SW 8.1 mph
(SW 13 kph)
- 10SM
02:54
Clear
39°F / 4°C 28°F / -2°C 65% 29.8 in
(1009 mb)
W 9.2 mph
(W 15 kph)
- 10SM
01:54
Clear
41°F / 5°C 27°F / -3°C 57% 29.8 in
(1009 mb)
NW 11.5 mph
(NW 19 kph)
- 10SM
00:54
Clear
43°F / 6°C 25°F / -4°C 49% 29.8 in
(1009 mb)
SSW 11.5 mph
(SSW 19 kph)
- 10SM
Time Weather Temperature Dewpoint Humidity Pressure Winds Precip Visibility


Weather for websites

WeatherForYou.com, LLC is not responsible for any damages or problems caused by this service. Current weather conditions are obtained from the closest station including government and personal stations which may have varying degrees of accuracy. Weather forecasts are derived from the NOAA NDFD. Like all things, this site belongs to Jesus Christ... He just trusts us to maintain it. If you have any questions or comments email webmaster@weatherforyou.com

Copyright © 2015, WeatherForYou.com LLC. All rights reserved.